This is the latest recevied weather packets stored in our database for station/object KQ4PPF. If no packets are shown the sender has not sent any weather packets the latest 10 day(s).
| Time | Temp. | Humidity | Pressure | Rain* | Wind** | Luminosity | Snow |
|---|---|---|---|---|---|---|---|
| 1777667836 | 20.56° C | 46% | 1012.6 hPa | 0 mm | - | 140 W/m² | - |
| 1777667533 | 20° C | 51% | 1012.7 hPa | 0 mm | - | 138 W/m² | - |
| 1777667230 | 20° C | 47% | 1012.9 hPa | 0 mm | - | 154 W/m² | - |
| 1777666927 | 20° C | 46% | 1012.7 hPa | 0 mm | - | 158 W/m² | - |
| 1777666624 | 20.56° C | 44% | 1012.9 hPa | 0 mm | - | 159 W/m² | - |
| 1777666320 | 20.56° C | 45% | 1013 hPa | 0 mm | - | 157 W/m² | - |
| 1777666017 | 20.56° C | 47% | 1013.1 hPa | 0 mm | - | 164 W/m² | - |
| 1777665715 | 20.56° C | 50% | 1013.3 hPa | 0 mm | - | 153 W/m² | - |
| 1777665412 | 20.56° C | 47% | 1013.3 hPa | 0 mm | - | 166 W/m² | - |
| 1777665108 | 20.56° C | 46% | 1013.4 hPa | 0 mm | - | 172 W/m² | - |
| 1777664803 | 20.56° C | 47% | 1013.4 hPa | 0 mm | - | 170 W/m² | - |
| 1777664499 | 20.56° C | 43% | 1013.3 hPa | 0 mm | - | 156 W/m² | - |
| 1777664196 | 20° C | 45% | 1013.4 hPa | 0 mm | - | 180 W/m² | - |
| 1777663895 | 20.56° C | 46% | 1013.7 hPa | 0 mm | - | 185 W/m² | - |
| 1777663592 | 20.56° C | 43% | 1013.4 hPa | 0 mm | - | 186 W/m² | - |
| 1777663289 | 20° C | 50% | 1013.7 hPa | 0 mm | - | 179 W/m² | - |
| 1777662986 | 19.44° C | 48% | 1013.7 hPa | 0 mm | - | 186 W/m² | - |
| 1777662683 | 19.44° C | 52% | 1013.9 hPa | 0 mm | - | 177 W/m² | - |
| 1777662380 | 20° C | 47% | 1013.7 hPa | 0 mm | - | 147 W/m² | - |
| 1777662075 | 19.44° C | 47% | 1013.7 hPa | 0 mm | - | 153 W/m² | - |
| 1777661771 | 20° C | 48% | 1013.7 hPa | 0 mm | - | 167 W/m² | - |
| 1777661467 | 20° C | 47% | 1013.5 hPa | 0 mm | - | 152 W/m² | - |
| 1777661163 | 20° C | 46% | 1013.6 hPa | 0 mm | - | 133 W/m² | - |
| 1777660858 | 20.56° C | 46% | 1013.5 hPa | 0 mm | - | 144 W/m² | - |
| 1777660555 | 20.56° C | 39% | 1013.7 hPa | 0 mm | - | 174 W/m² | - |
* Rain latest hour (hover to see other rain measurements)
** Current wind speed in m/s (hover to see current wind gust speed)